STARLINK-32497, 62161

Orbit data source: Space-Track

STARLINK-32497, 62161 is a payload satellite owned by SpaceX/Seattle (US) in LEO that was launched on Sat, 30 Nov 2024 UTC via an FALCON 9 launch vehicle from the Air Force Eastern Test Range (AFETR). Payload-class satellites include a variety of spacecraft equipped with specific instruments for various scientific and technological missions. These include communications satellites like Starlink; space stations such as the ISS; scientific satellites like the Hubble; Earth observation satellites from companies like Planet Labs, Umbra, and HawkEye 360; GPS; miniature CubeSats for education and research; and military/defense satellites.

Loading next visibility...
Identifier
62161, 2024-224Y
Orbit
LEO
Country
Flag of USUS
Related business
Manufacturer
SpaceX/Seattle
Mission
Operational Commercial Communications
Bus & Motor
STARLINK V2M, Unknown motor
Mass
730 kg wet, ~700 kg dry
Launch date (UTC)
2024-11-30 (1 year ago)
Launch vehicle
FALCON 9
Launch site
Air Force Eastern Test Range (AFETR)
Object type
Payload
Rocket body
Debris
Shape & HBR
Box + 2 Pan, 17.7 m
Radar Cross Section
33.884 m², Large (>1 m²)

Expand to show TLE details & history
Last TLE update: 19 hours ago

TLE from 19 hours ago
0 STARLINK-32497
1 62161U 24224Y   25348.83450414  .00021941  00000-0  80462-3 0  9991
2 62161  42.9984 280.6869 0000775 302.9465  57.1312 15.27573130 59457
Epoch: 2025-12-14T20:01Z
TLE epoch observation values (Epoch: 2025-12-14T20:01:41.157Z)
Latitude
-0.00003°
Longitude
-103.47635°
Altitude
482.556 km
Speed
7.626 km/s
True Right ascension
18h 42m 44s
True Declination
0° 00' 00"
Sunlit
Object was in daylight at epoch
Visualization orbit readout
Latitude
Unknown
Longitude
Unknown
Altitude
Unknown
Speed
Unknown
Apparent Right ascension
Unknown
Apparent Declination
Unknown
Sunlit
N/A
Visualization observer readout
Local Sidereal Time
13:20:34
Azimuth
Unknown
Elevation
Unknown
Doppler factor
Unknown
Orbital elements
Apogee altitude
485.547 km
Perigee altitude
484.483 km
Semi-major axis
6,863.152 km
Eccentricity
0.00008
Inclination
42.9984°
RAAN
280.6869°
Arg. of periapsis
302.9465°
True anomaly
57.13866°
Mean anomaly
57.1312°
Eccentric anomaly
57.13493°
Mean motion
3.81731 °/min
Orbital period
94.31 mins
BSTAR
0.00080462
Loading maneuver chart data...
Computing Atmospheric mass density...
Loading historical data...
Loading historical data...
Loading historical data...
Loading historical data...
Loading historical data...
Loading historical data...
Loading historical data...

Documentation

Showing up to 5 results
|